Regional Weather Roundup
Issued by NWS

Home | Current Version | Previous Version | Graphics & Text | Print | Product List | Glossary On
Versions: 1 2 3 4 5 6 7 8 9 10 11 12 13 14 15 16 17 18 19 20 21 22 23 24 25 26 27 28 29 30 31 32 33 34 35 36 37 38 39 40 41 42 43 44 45 46 47 48 49 50
000
ASUS43 KIND 061909
RWRIN

WEATHER ROUNDUP FOR INDIANA
NATIONAL WEATHER SERVICE INDIANAPOLIS IN
300 PM EDT MON JUL 06 2015

NOTE: "FAIR" INDICATES FEW OR NO CLOUDS BELOW 12,000 FEET WITH NO
SIGNIFICANT WEATHER AND/OR OBSTRUCTIONS TO VISIBILITY.

* - STATION DOES NOT REPORT WEATHER SUCH AS PRECIPITATION OR FOG.

+ - STATION NOT QUALITY CONTROLLED BY THE NATIONAL WEATHER SERVICE.
    USE DATA WITH CAUTION...ESPECIALLY DEWPOINT AND RELATIVE
    HUMIDITY OBSERVATIONS.

INZ001>003-010>013-019-020-062000-
NORTHWEST INDIANA

CITY           SKY/WX    TMP DP  RH WIND       PRES   REMARKS
GARY /AIRPORT/ MOSUNNY  N/A N/A N/A S12       29.93F
KNOX *+        PTSUNNY   82  64  54 S12G20    29.95F
LA PORTE +     PTSUNNY   85  69  58 S8G17     29.96F
MICHIGAN CITY+ PTSUNNY   82  64  54 S9G17     29.95F
MONTICELLO +   PTSUNNY   84  70  63 S9        29.97F
RENSSELAER +   PTSUNNY   82  72  69 S10       29.96F
VALPARAISO     PTSUNNY   84  68  58 S15       29.96F

$$

LMZ046-743>745-062000-
SOUTHERN LAKE MICHIGAN

STATION/POSITION TIME  TEMP    WIND        PRES    WAVE
                       AIR SEA DIR/SP/G            HT
                 (UTC) (F)     (DEG/KT/KT) (MB)    (FT)
BURNS HARBOR     1900   82     190/ 16/ 22 1013.9S
MICHIGAN CITY    1900   81     160/ 13/ 17   N/A
5NW MICH CITY    1900   77 67  190/ 10/ 16   N/A     1

$$

INZ004-005-014>016-021>024-062000-
NORTH CENTRAL INDIANA

CITY           SKY/WX    TMP DP  RH WIND       PRES   REMARKS
ELKHART        SUNNY     82  64  54 SW10G16   29.98F
GOSHEN         MOSUNNY   82  67  60 S14       29.98F
LOGANSPORT +   MOSUNNY   82  57  42 S9        29.99F
PERU/GRISSOM   MOSUNNY   83  67  58 S9        29.99F
ROCHESTER +    PTSUNNY   86  66  51 S9        29.99F
SOUTH BEND     PTSUNNY   84  65  52 S13       29.97F
WARSAW +         N/A     82  64  54 S9        29.99F

$$

INZ006>009-017-018-025>027-062000-
NORTHEAST INDIANA

CITY           SKY/WX    TMP DP  RH WIND       PRES   REMARKS
ANGOLA *+        N/A     84  68  58 S7        30.01F
AUBURN +       MOSUNNY   82  63  51 S5        30.02F
FORT WAYNE     MOSUNNY   83  67  58 S7        30.02F
HUNTINGTON +   MOSUNNY   83  67  58 S8        30.01F

$$

INZ028-029-035-036-043>045-051>053-062000-
WEST CENTRAL INDIANA

CITY           SKY/WX    TMP DP  RH WIND       PRES   REMARKS
CRAWFORDSVL +  MOSUNNY   81  64  56 S10       30.01F
GREENCASTLE +  MOSUNNY   82  63  51 S9        30.02F
LAFAYETTE      PTSUNNY   83  68  60 S9G17     29.98F
TERRE HAUTE    MOSUNNY   85  71  63 S15       30.01F

$$

INZ030>032-037>040-046>048-054>057-064-065-062000-
CENTRAL INDIANA

CITY           SKY/WX    TMP DP  RH WIND       PRES   REMARKS
CP ATTERBURY + MOSUNNY   82  64  54 SW7       30.05F
FRANKFORT +    MOSUNNY   85  67  55 MISG      30.02F
GREENWOOD *+   MOSUNNY   82  64  54 S9        30.04F
INDIANAPOLIS   MOSUNNY   83  65  54 SW10G17   30.01F
-EAGLE CREEK   MOSUNNY   83  66  56 S8        30.02F
KOKOMO *+      MOSUNNY   84  66  54 S10       30.00F
MARION +       MOSUNNY   82  66  57 S8        30.03F
MT COMFORT *+  SUNNY     84  59  42 S8        30.04F
SHELBYVILLE    MOSUNNY   85  68  56 S10       30.03F
ZIONSVILLE +   MOSUNNY   84  63  47 SW8       30.03F

$$

INZ033-034-041-042-049-050-058-059-062000-
EAST CENTRAL INDIANA

CITY           SKY/WX    TMP DP  RH WIND       PRES   REMARKS
MUNCIE         MOSUNNY   83  66  56 S7        30.04F

$$

INZ060-061-067>069-081>083-085>088-062000-
SOUTHWEST INDIANA

CITY           SKY/WX    TMP DP  RH WIND       PRES   REMARKS
EVANSVILLE     PTSUNNY   86  72  62 SW13      30.03F
HUNTINGBURG *+ MOSUNNY   84  72  65 SW8       30.05F
WASHINGTON +   PTSUNNY   84  67  54 S10       30.02F

$$

INZ062-063-066-070>080-084-089>092-062000-
SOUTH CENTRAL AND SOUTHEAST INDIANA

CITY           SKY/WX    TMP DP  RH WIND       PRES   REMARKS
BLOOMINGTON    PTSUNNY   83  69  62 S7        30.04F
MADISON *+     MOSUNNY   84  66  54 S7        30.09F
NORTH VERNON + MOSUNNY   86  66  51 S7        30.07F
SEYMOUR +      MOSUNNY   84  68  58 SW3       30.05F

$$




USA.gov is the U.S. government's official web portal to all federal, state and local government web resources and services.